Quillayute, WA
on Saturday, February 2, 2013

Saturday
Previous Day Next Day
Daily Summary
 ActualAverageRecord
Temperature
Mean Temperature °F 42°F  
Max Temperature 57°F 48°F 63°F (1993)
Min Temperature 34°F 36°F 11°F (1989)
Degree Days
Heating Degree Days 19 23  
Month to date heating degree days 39 46  
Since 1 July heating degree days 3147 3251  
Cooling Degree Days 0 0  
Month to date cooling degree days 0 0  
Year to date cooling degree days 0 0  
Moisture
Dew Point 35°F   
Average Humidity 75    
Maximum Humidity 92    
Minimum Humidity 57    
Precipitation
Precipitation 0.00 in 0.38 in 2.60 in (1967)
Month to date precipitation 0.01 0.77  
Year to date precipitation 10.35 15.38  
Wind
Wind Speed 2 mph   
Max Wind Speed 9 mph   
Max Gust Speed 26 mph   
Visibility 3 miles   
Events Fog   

Key: T is trace of precipitation, MM is missing value
Source: NWS Daily Summary
Time(PST)TemperatureDew PointHumidity Pressure Visibility Wind DirectionWind SpeedGust SpeedPrecipitationEvents Conditions
12:24 AM 35.6°F 33.8°F 93% 30.34 in 0.2 miles Calm Calm - N/A Fog Fog
12:50 AM 35.6°F 33.8°F 93% 30.34 in 0.5 miles Calm Calm - N/A Fog Fog
12:53 AM 37.9°F 35.1°F 89% 30.34 in 0.5 miles Calm Calm - N/A Fog Fog
12:59 AM 37.4°F 35.6°F 93% 30.34 in 1.5 miles Calm Calm - N/A   Clear
1:05 AM 37.4°F 33.8°F 87% 30.34 in 0.8 miles Calm Calm - N/A   Clear
1:15 AM 35.6°F 32.0°F 87% 30.34 in 0.2 miles Calm Calm - N/A Fog Fog
1:35 AM 37.4°F 35.6°F 93% 30.33 in 1.2 miles Calm Calm - N/A   Clear
1:38 AM 37.4°F 35.6°F 93% 30.33 in 2.5 miles Calm Calm - N/A   Clear
1:45 AM 37.4°F 35.6°F 93% 30.33 in 5.0 miles Calm Calm - N/A   Clear
1:53 AM 37.9°F 34.0°F 86% 30.33 in 5.0 miles East 3.5 mph - N/A   Clear
2:53 AM 37.0°F 34.0°F 89% 30.33 in 5.0 miles Calm Calm - N/A   Clear
3:25 AM 37.4°F 33.8°F 87% 30.31 in 2.0 miles Calm Calm - N/A   Clear
3:35 AM 37.4°F 33.8°F 87% 30.30 in 5.0 miles East 3.5 mph - N/A   Clear
3:53 AM 37.0°F 33.1°F 86% 30.31 in 5.0 miles East 3.5 mph - N/A   Clear
4:53 AM 37.0°F 33.1°F 86% 30.30 in 6.0 miles Calm Calm - N/A   Clear
5:53 AM 36.0°F 32.0°F 86% 30.28 in 5.0 miles ENE 3.5 mph - N/A   Clear
6:53 AM 36.0°F 32.0°F 86% 30.27 in 6.0 miles ENE 4.6 mph - N/A   Clear
7:53 AM 36.0°F 32.0°F 86% 30.28 in 4.0 miles Calm Calm - N/A   Clear
8:04 AM 37.4°F 33.8°F 87% 30.27 in 1.2 miles East 3.5 mph - N/A   Clear
8:15 AM 37.4°F 33.8°F 87% 30.28 in 2.0 miles East 3.5 mph - N/A   Clear
8:23 AM 37.4°F 33.8°F 87% 30.28 in 4.0 miles ESE 3.5 mph - N/A   Clear
8:53 AM 41.0°F 36.0°F 82% 30.29 in 5.0 miles East 3.5 mph - N/A   Haze
9:53 AM 46.0°F 39.0°F 76% 30.28 in 5.0 miles Calm Calm - N/A   Haze
10:53 AM 51.1°F 39.9°F 66% 30.28 in 6.0 miles ENE 5.8 mph - N/A   Haze
11:53 AM 54.0°F 41.0°F 62% 30.27 in 6.0 miles Calm Calm - N/A   Haze
12:53 PM 57.0°F 43.0°F 59% 30.25 in 6.0 miles Calm Calm - N/A   Haze
1:53 PM 54.0°F 44.1°F 69% 30.25 in 4.0 miles SSW 6.9 mph - N/A   Haze
2:53 PM 53.1°F 43.0°F 69% 30.25 in 5.0 miles Calm Calm - N/A   Haze
3:53 PM 54.0°F 42.1°F 64% 30.24 in 5.0 miles Calm Calm - N/A   Haze
4:53 PM 46.9°F 41.0°F 80% 30.23 in 2.5 miles West 3.5 mph - N/A   Haze
5:53 PM 44.1°F 39.0°F 82% 30.25 in 2.5 miles Calm Calm - N/A   Haze
6:29 PM 42.8°F 39.2°F 87% 30.25 in 1.5 miles Calm Calm - N/A   Clear
6:53 PM 41.0°F 37.0°F 86% 30.26 in 1.8 miles Calm Calm - N/A   Clear
7:02 PM 39.2°F 35.6°F 87% 30.25 in 0.8 miles Calm Calm - N/A   Clear
7:28 PM 39.2°F 35.6°F 87% 30.25 in 0.8 miles Calm Calm - N/A   Mist
7:50 PM 42.8°F 37.4°F 81% 30.25 in 1.8 miles Calm Calm - N/A   Partly Cloudy
7:53 PM 39.9°F 37.0°F 89% 30.26 in 3.0 miles Calm Calm - N/A   Clear
8:20 PM 39.2°F 35.6°F 87% 30.24 in 1.8 miles Calm Calm - N/A   Clear
8:27 PM 39.2°F 35.6°F 87% 30.24 in 3.0 miles Calm Calm - N/A   Clear
8:33 PM 39.2°F 35.6°F 87% 30.23 in 1.5 miles Calm Calm - N/A   Clear
8:36 PM 39.2°F 35.6°F 87% 30.24 in 0.8 miles Calm Calm - N/A   Clear
8:50 PM 37.4°F 35.6°F 93% 30.24 in 0.5 miles Calm Calm - N/A Fog Fog
8:53 PM 37.9°F 35.1°F 89% 30.25 in 0.5 miles Calm Calm - N/A Fog Fog
9:00 PM 37.4°F 35.6°F 93% 30.24 in 0.8 miles Calm Calm - N/A   Clear
9:14 PM 37.4°F 33.8°F 87% 30.24 in 0.2 miles Calm Calm - N/A Fog Fog
9:22 PM 37.4°F 33.8°F 87% 30.24 in 0.5 miles Calm Calm - N/A Fog Fog
9:30 PM 35.6°F 33.8°F 93% 30.25 in 0.2 miles Calm Calm - N/A Fog Fog
9:46 PM 37.4°F 33.8°F 87% 30.25 in 1.0 miles Calm Calm - N/A   Mist
9:53 PM 36.0°F 33.1°F 89% 30.25 in 0.2 miles SSE 3.5 mph - N/A Fog Fog
10:38 PM 35.6°F 32.0°F 87% 30.25 in 1.0 miles WNW 3.5 mph - N/A   Mist
10:41 PM 35.6°F 32.0°F 87% 30.25 in 1.5 miles Calm Calm - N/A   Partly Cloudy
10:49 PM 35.6°F 32.0°F 87% 30.25 in 3.0 miles Calm Calm - N/A   Clear
10:53 PM 36.0°F 32.0°F 86% 30.26 in 3.0 miles Calm Calm - N/A   Clear
10:58 PM 35.6°F 32.0°F 87% 30.25 in 1.8 miles Calm Calm - N/A   Clear
11:06 PM 35.6°F 32.0°F 87% 30.26 in 2.0 miles Calm Calm - N/A   Partly Cloudy
11:22 PM 35.6°F 32.0°F 87% 30.26 in 5.0 miles Calm Calm - N/A   Partly Cloudy
11:36 PM 35.6°F 32.0°F 87% 30.25 in 2.0 miles Calm Calm - N/A   Partly Cloudy
11:44 PM 35.6°F 30.2°F 81% 30.26 in 1.2 miles Calm Calm - N/A   Mostly Cloudy
11:49 PM 35.6°F 30.2°F 81% 30.26 in 1.5 miles Calm Calm - N/A   Scattered Clouds
11:53 PM 34.0°F 30.9°F 89% 30.27 in 1.8 miles Calm Calm - N/A   Scattered Clouds
Moon Phase
Feb. 02 Feb. 03 Feb. 10 Feb. 17 Feb. 25
Sunrise:07:43 AM (PST) Moon Rise:12:06 AM (PST)2/2
Sunset:05:20 PM (PST) Moon Set:10:23 AM (PST)2/2

Copyright © 2014 The Weather Underground, Inc.